Location: Tel Aviv
(32.0670°N, 34.7670°E)
Time: 07:47:09
(UTC+03:00)

O/OREOS (USA 219) - Visible Passes

Search period start: 19 September 2024 00:00
Search period end: 29 September 2024 00:00
Orbit: 591 x 614 km, 72.0° (Epoch: 18 September)

Date Brightness Start Highest point End Pass type
(mag) Time Alt. Az. Time Alt. Az. Time Alt. Az.
21 Sep ? 05:10:52 10° SE 05:13:49 18° E 05:16:46 10° ENE visible
22 Sep ? 05:21:54 10° SSE 05:25:53 34° ESE 05:29:54 10° NE visible
23 Sep ? 05:33:39 10° S 05:38:03 70° ESE 05:42:27 10° NNE visible
24 Sep ? 05:45:55 10° SSW 05:50:16 57° WNW 05:54:38 10° N visible
25 Sep ? 04:21:03 10° SE 04:24:06 18° E 04:27:08 10° ENE visible
25 Sep ? 05:58:42 10° SW 06:02:34 29° WNW 06:06:27 10° N visible
26 Sep ? 04:33:28 18° SSE 04:36:08 35° ESE 04:40:11 10° NE visible
27 Sep ? 04:46:52 43° S 04:48:15 73° ESE 04:52:39 10° NNE visible
28 Sep ? 05:00:03 53° W 05:00:26 55° WNW 05:04:47 10° N visible
